Regional Weather Roundup
Issued by NWS

Home | Current Version | Previous Version | Text Only | Print | Product List | Glossary Off
Versions: 1 2 3 4 5 6 7 8 9 10 11 12 13 14 15 16 17 18 19 20 21 22 23 24 25 26 27 28 29 30 31 32 33 34 35 36 37 38 39 40 41 42 43 44 45 46 47 48 49 50

000
ASUS43 KFSD 120310
RWRSD

WEATHER ROUNDUP FOR SOUTH DAKOTA
NATIONAL WEATHER SERVICE SIOUX FALLS SD
1000 PM CDT FRI JUL 11 2014

NOTE: "FAIR" INDICATES FEW OR NO CLOUDS BELOW 12,000 FEET WITH NO
SIGNIFICANT WEATHER AND/OR OBSTRUCTIONS TO VISIBILITY.


SDZ001>005-009-010-012>017-120400-
NORTHWEST AND NORTH CENTRAL SOUTH DAKOTA

CITY           SKY/WX    TMP DP  RH WIND       PRES   REMARKS
BUFFALO          N/A     68  57  68 NE10      30.07R
FAITH            N/A     73  63  70 NE10      30.08R
MOBRIDGE       CLOUDY    73  61  65 NE12      30.02R
$$

SDZ012>016-024>037-041>051-057-063-072>074-120400-
SOUTHWEST AND SOUTH CENTRAL SOUTH DAKOTA

CITY           SKY/WX    TMP DP  RH WIND       PRES   REMARKS
RAPID CTY ARPT CLOUDY    67  61  81 W7        30.13R
PIERRE         CLOUDY    75  63  66 N3        30.00R
CUSTER         CLOUDY    60  57  89 CALM      30.27R
ELLSWORTH AFB  CLOUDY    67  62  82 S10       30.12R
PHILIP         CLOUDY    77  68  73 MISG      30.04R
PINE RIDGE     LGT RAIN  64  63  96 NE10      30.16R
WINNER         FAIR      79  71  76 SW7       30.03R
$$

SDZ004>011-016>023-039-040-120400-
NORTHEAST SOUTH DAKOTA

CITY           SKY/WX    TMP DP  RH WIND       PRES   REMARKS
ABERDEEN       MOCLDY    74  63  68 N8        30.01R
WATERTOWN      MOCLDY    76  66  71 NE3       30.01R
SISSETON         N/A     74  68  81 NW6       29.98R
$$

SDZ017-020-022-023-036>040-048>070-120400-
SOUTHEAST SOUTH DAKOTA

CITY           SKY/WX    TMP DP  RH WIND       PRES   REMARKS
SIOUX FALLS    MOCLDY    77  72  84 SW6       30.02R
HURON          CLOUDY    79  67  66 E5        29.98R
CHAMBERLAIN    CLOUDY    75  68  79 CALM      30.01R
MITCHELL       CLOUDY    81  74  79 S6        29.99R
YANKTON          N/A     73  73 100 CALM      30.02R
$$

ABBREVIATIONS USED IN REMARKS
   TC - TEMPERATURE IN CELSIUS
  WCI - WIND CHILL INDEX
   HX - HEAT INDEX
  VSB - VISIBILITY




USA.gov is the U.S. government's official web portal to all federal, state and local government web resources and services.